EHI
0 0 0 0 0 0 0 0 0 0 0 0 0 0 0 0 0 0 0 0 0 0 0 0 0 0 0 0 0 0 0 0 0 0 0 0 0 0 0 0 0 0 0 0
0 0 0 0 0 0 0 0 0 0 0 0 0 0 0 0 0 0 0 0 0 0 0 0 0 0 0 0 0 0 0 0 0 0 0 0 0 0 0 0 0 0 0 0
0 0 0 0 0 0 0 0 0 0 0 0 0 0 0 0 0 0 0 0 0 0 0 0 0 0 0 0 0 0 0 0 0 0 0 0 0 0 0 0 0 0 0 0
0 0 0 0 0 0 0 0 0 0 0 0 0 0 0 0 0 0 0 0 0 0 0 0 0 0 0 0 0 0 0 0 0 0 0 0 0 0 0 0 0 0 0 0
0 0 0 0 0 0 0 0 0 0 0 0 0 0 0 0 0 0 0 0 0 0 0 0 0 0 0 0 0 0 0 0 0 0 0 0 0 0 0 0 0 0 0 0
0 0 0 0 0 0 0 0 0 0 0 0 0 0 0 0 0 0 0 0 0 0 0 0 0 0 0 0 0 0 0 0 0 0 0 0 0 0 0 0 0 0 0 0
0 0 0 0 0 0 0 0 0 0 0 0 0 0 0 0 0 0 0 0 0 0 0 0 0 0 0 0 0 0 0 0 0 0 0 0 0 0 0 0 0 0 0 0
0 0 0 0 0 0 0 0 0 0 0 0 0 0 0 0 0 0 0 0 0 0 0 0 0 0 0 0 0 0 0 0 0 0 0 0 0 0 0 0 0 0 0 0
0 0 0 0 0 0 0 0 0 0 0 0 0 0 0 0 0 0 0 0 0 0 0 0 0 0 0 0 0 0 0 0 0 0 0 0 0 0 0 0 0 0 0 0
0 0 0 0 0 0 0 0 0 0 0 0 0 0 0 0 0 0 0 0 0 0 0 0 0 0 0 0 0 0 0 0 0 0 0 0 0 0 0 0 0 0 0 0
0 0 0 0 0 0 0 0 0 0 0 0 0 0 0 0 0 0 0 0 0 0 0 0 0 0 0 0 0 0 0 0 0 0 0 0 0 0 0 0 0 0 0 0
0 0 0 0 0 0 0 0 0 0 0 0 0 0 0 0 0 0 0 0 0 0 0 0 0 0 0 0 0 0 0 0 0 0 0 0 0 0 0 0 0 0 0 0
0 0 0 0 0 0 0 0 0 0 0 0 0 0 0 0 0 0 0 0 0 0 0 0 0 0 0 0 0 0 0 0 0 0 0 0 0 0 0 0 0 0 0 0
0 0 0 0 0 0 0 0 0 0 0 0 0 0 0 0 0 0 0 0 0 0 0 0 0 0 0 0 0 0 0 0 0 0 0 0 0 0 0 0 0 0 0 0
0 0 0 0 0 0 0 0 0 0 0 0 0 0 0 0 0 0 0 0 0 0 0 0 0 0 0 0 0 0 0 0 0 0 0 0 0 0 0 0 0 0 0 0
0 0 0 0 0 0 0 0 0 0 0 0 0 0 0 0 0 0 0 0 0 0 0 0 0 0 0 0 0 0 0 0 0 0 0 0 0 0 0 0 0 0 0 0
0 0 0 0 0 0 0 0 0 0 0 0 0 0 0 0 0 0 0 0 0 0 0 0 0 0 0 0 0 0 0 0 0 0 0 0 0 0 0 0 0 0 0 0
0 0 0 0 0 0 0 0 0 0 0 0 0 0 0 0 0 0 0 0 0 0 0 0 0 0 0 0 0 0 0 0 0 0 0 0 0 0 0 0 0 0 0 0
0 0 0 0 0 0 0 0 0 0 0 0 0 0 0 0 0 0 0 0 0 0 0 0 0 0 0 0 0 0 0 0 0 0 0 0 0 0 0 0 0 0 0 0
0 0 0 0 0 0 0 0 0 0 0 0 0 0 0 0 0 0 0 0 0 0 0 0 0 0 0 0 0 0 0 0 0 0 0 0 0 0 0 0 0 0 0 0
0 0 0 0 0 0 0 0 0 0 0 0 0 0 0 0 0 0 0 0 0 0 0 0 0 0 0 0 0 0 0 0 0 0 0 0 0 0 0 0 0 0 0 0
0 0 0 0 0 0 0 0 0 0 0 0 0 0 0 0 0 0 0 0 0 0 0 0 0 0 0 0 0 0 0 0 0 0 0 0 0 0 0 0 0 0 0 0
0 0 0 0 0 0 0 0 0 0 0 0 0 0 0 0 0 0 0 0 0 0 0 0 0 0 0 0 0 0 0 0 0 0 0 0 0 0 0 0 0 0 0 0
0 0 0 0 0 0 0 0 0 0 0 0 0 0 0 0 0 0 0 0 0 0 0 0 0 0 0 0 0 0 0 0 0 0 0 0 0 0 0 0 0 0 0 0
0 0 0 0 0 0 0 0 0 0 0 0 0 0 0 0 0 0 0 0 0 0 0 0 0 0 0 0 0 0 0 0 0 0 0 0 0 0 0 0 0 0 0 0
0 0 0 0 0 0 0 0 0 0 0 0 0 0 0 0 0 0 0 0 0 0 0 0 0 0 0 0 0 0 0 0 0 0 0 0 0 0 0 0 0 0 0 0
0 0 0 0 0 0 0 0 0 0 0 0 0 0 0 0 0 0 0 0 0 0 0 0 0 0 0 0 0 0 0 0 0 0 0 0 0 0 0 0 0 0 0 0
Wind_Speed
18 18 17 18 18 16 17 18 18 20 21 20 18 17 15 13 12 11 11 10 10 10 9 8 8 7 7 7 6 6 7 8 10 11 12 13 13 13 13 14 14 15 15 14
16 16 17 21 21 21 21 21 22 23 24 19 17 15 13 12 12 11 11 11 11 11 10 10 9 8 7 7 6 6 7 8 8 9 10 12 13 13 13 13 13 14 15 15
13 13 14 17 16 17 17 16 17 19 18 15 15 14 13 12 12 11 11 11 12 11 10 10 9 8 8 7 6 7 7 7 7 8 9 10 12 12 13 14 13 14 14 15
9 10 14 9 5 9 13 14 14 15 15 15 15 14 12 11 11 12 12 12 12 11 11 10 9 8 8 8 7 7 7 7 7 8 8 9 10 12 13 12 13 13 13 14
6 10 14 12 8 7 10 12 10 13 14 13 12 12 10 9 10 11 11 11 11 11 11 10 9 8 7 7 7 7 7 7 7 7 7 8 10 11 10 11 12 12 12 13
9 10 11 8 4 3 6 10 6 8 10 11 10 10 8 8 10 11 11 10 10 10 10 9 9 8 8 8 7 8 7 7 7 7 7 8 10 10 8 9 10 10 10 11
13 12 11 8 3 3 7 5 3 5 8 9 10 11 12 12 12 11 11 11 10 10 9 9 8 8 8 8 9 7 7 7 7 7 7 7 8 8 8 8 9 9 10 10
9 11 11 3 4 6 6 6 6 7 8 10 12 13 13 13 13 12 12 12 11 10 10 8 8 8 9 9 8 7 6 6 6 6 5 5 7 8 8 8 9 9 9 9
9 10 6 4 7 7 7 9 10 10 10 11 13 13 14 14 13 12 12 11 10 11 10 9 8 8 9 9 8 7 6 6 5 5 6 6 8 8 8 8 8 8 8 8
10 13 12 11 11 10 10 11 11 12 12 12 13 14 14 13 12 12 12 11 10 11 11 10 9 9 10 9 7 7 7 6 5 5 6 6 6 7 8 8 9 9 9 8
14 14 13 12 10 10 10 10 11 12 11 12 13 14 14 13 13 12 11 11 10 10 11 11 10 10 9 8 7 7 6 6 6 6 6 6 6 6 8 8 9 10 9 9
12 11 10 10 9 9 10 11 12 13 13 12 12 14 14 13 13 12 12 11 11 11 11 11 10 10 9 8 7 7 6 5 5 5 5 5 5 3 3 5 8 8 8 9
14 12 12 13 12 11 11 12 13 13 14 14 13 13 14 13 12 12 13 12 12 12 12 11 10 9 9 7 7 7 7 6 5 5 6 6 5 6 5 5 7 9 11 12
12 11 12 12 11 11 12 13 13 13 13 13 13 13 13 13 13 13 13 12 12 12 11 10 10 10 8 7 6 7 7 6 6 6 6 6 6 6 6 7 7 5 8 14
9 10 11 11 11 11 10 11 12 12 12 13 12 12 13 13 14 14 13 12 12 12 11 10 10 10 7 6 6 7 6 5 5 6 5 6 6 6 6 7 8 7 7 9
8 8 9 10 11 11 11 11 12 13 13 13 13 13 13 14 14 13 13 12 12 12 11 10 10 9 7 6 6 5 5 7 6 6 6 6 6 6 7 8 8 8 8 9
7 8 8 9 11 11 11 11 12 13 13 13 14 14 14 14 13 13 12 12 12 12 11 10 9 8 6 6 6 5 5 5 7 6 6 6 6 6 7 8 8 8 7 9
7 8 9 10 11 12 12 12 12 13 13 13 14 13 13 13 14 13 13 12 12 11 9 8 8 7 6 6 5 4 4 5 5 6 6 6 6 6 7 8 9 9 8 9
6 7 8 9 10 11 12 12 12 13 13 12 13 13 13 13 13 13 12 12 11 10 8 6 7 7 6 5 5 4 4 5 4 5 6 8 7 7 8 8 8 8 9 8
6 7 8 9 9 10 11 11 12 12 11 11 12 12 12 12 12 12 11 10 8 7 7 7 6 5 5 5 5 4 5 5 5 6 7 7 7 8 8 8 9 9 8 8
7 8 9 9 10 10 10 11 11 12 12 11 11 12 12 12 11 10 9 9 8 7 6 7 5 4 3 3 4 4 5 5 6 6 7 8 8 8 8 9 9 8 8 8
7 8 9 9 10 10 10 10 10 11 11 11 11 11 11 11 10 9 9 8 7 7 5 4 4 4 4 4 3 4 5 5 6 6 7 8 8 9 9 9 9 8 8 8
7 8 9 9 10 11 11 10 10 10 10 10 10 10 10 9 7 7 7 5 5 7 6 4 4 4 4 3 4 5 5 6 6 6 7 7 8 8 9 9 8 8 9 8
8 8 9 9 9 10 10 10 9 8 9 9 9 9 9 7 6 5 5 7 8 7 4 3 4 4 4 3 4 5 5 5 6 6 7 7 7 8 8 8 8 8 9 10
8 8 9 9 8 7 9 10 9 9 8 7 8 8 6 5 5 5 5 5 5 5 3 2 2 3 3 3 4 5 5 5 6 7 7 7 8 8 8 8 9 9 9 9
7 7 7 7 7 7 7 7 7 7 7 7 7 6 5 5 5 4 3 3 3 2 1 0 1 1 3 4 5 5 5 6 6 6 7 7 8 8 8 9 10 9 9 9
7 6 6 6 6 6 6 6 6 7 7 7 7 6 6 5 4 3 3 2 2 1 1 2 2 2 3 4 5 5 5 5 6 6 7 7 7 8 9 10 8 8 9 9
Wind_Direction
263 272 272 270 268 261 249 249 258 267 273 280 290 293 296 298 301 302 305 310 311 310 309 307 300 291 276 268 256 245 237 233 226 217 212 206 202 199 197 194 194 193 192 191
268 267 269 269 265 262 258 255 256 264 269 277 286 288 291 295 296 296 298 304 306 306 305 303 300 295 286 273 263 249 241 239 233 222 211 206 202 196 192 192 190 191 192 190
271 281 281 265 258 255 254 252 253 259 269 285 288 289 288 292 295 294 295 300 302 302 299 297 294 290 284 276 264 253 244 240 231 222 211 206 200 195 191 191 188 189 191 189
271 275 254 262 280 265 262 260 258 263 273 280 283 288 287 290 294 295 297 297 299 300 298 293 289 286 284 279 261 251 245 238 228 219 210 202 198 197 192 188 188 187 189 189
249 258 269 275 267 261 260 266 265 270 276 281 289 284 275 286 295 295 296 297 297 298 296 291 285 283 281 276 263 252 244 239 228 216 209 201 197 197 192 188 187 186 185 186
238 253 263 280 297 276 257 265 282 281 280 285 292 282 288 310 303 294 296 298 297 299 297 290 285 280 273 270 260 253 248 243 231 218 207 203 198 193 190 187 184 178 181 185
240 252 263 279 288 201 234 278 325 297 291 290 281 279 297 303 299 295 297 299 299 297 293 287 284 276 267 264 256 254 252 246 231 220 208 201 196 189 184 182 176 173 175 179
232 243 253 227 181 219 261 298 295 298 300 296 291 292 295 296 296 296 298 299 299 297 292 290 282 272 267 266 265 256 246 239 226 217 203 192 188 181 177 176 172 170 171 173
226 244 277 226 232 256 277 283 290 295 298 299 296 296 298 297 297 296 297 298 298 294 291 287 279 269 266 269 267 252 238 229 217 210 196 190 185 178 175 176 172 171 170 171
252 258 265 267 266 270 274 278 289 293 295 295 293 295 296 295 294 295 297 296 295 291 286 285 283 276 268 267 257 242 230 220 208 205 196 190 184 181 179 178 175 173 172 171
254 265 275 266 265 274 281 286 291 293 291 290 291 291 292 293 293 293 294 294 292 286 282 282 282 276 273 266 247 233 228 215 203 202 192 189 188 190 186 188 183 177 176 172
254 263 263 274 283 285 284 286 290 294 293 291 288 289 291 290 291 292 292 293 291 287 282 281 277 273 270 263 242 229 220 211 201 192 187 181 173 165 161 169 162 170 171 167
259 273 273 278 283 283 282 286 290 288 287 288 288 287 288 287 289 290 290 289 288 288 283 280 276 272 269 258 241 230 218 211 201 191 185 177 173 168 157 132 131 144 151 151
259 269 270 271 277 285 286 288 288 285 283 283 286 286 286 286 286 286 286 287 287 286 281 277 273 270 268 255 240 231 221 210 205 195 185 177 175 173 168 160 152 143 140 141
259 260 266 280 284 285 287 288 288 286 288 289 287 286 287 286 286 286 288 289 287 283 279 276 272 269 267 253 237 226 219 209 202 191 182 175 169 169 165 157 150 145 139 139
276 274 272 274 279 285 289 288 287 288 291 291 290 289 288 286 286 286 286 287 283 280 276 273 269 268 263 252 239 225 219 208 202 187 176 169 167 165 161 154 149 150 152 149
269 274 277 281 285 288 288 286 285 286 288 288 289 291 291 289 287 285 286 285 281 277 274 270 268 267 259 247 236 222 209 195 189 181 173 169 164 163 159 154 152 150 151 156
263 270 275 280 284 287 289 289 287 287 287 288 290 288 286 285 286 288 289 289 285 278 273 267 264 263 253 243 231 217 204 194 187 177 167 162 157 158 152 149 146 145 146 146
282 281 284 284 285 285 287 289 290 289 290 290 289 286 283 281 283 285 287 286 283 280 278 271 267 258 248 235 222 208 197 186 181 169 159 154 154 151 147 148 148 150 149 147
300 298 295 294 293 289 289 291 292 291 291 291 288 286 284 284 284 284 282 276 271 271 278 277 270 258 244 225 210 195 186 183 176 164 158 158 154 149 148 147 148 149 149 148
304 304 303 301 299 297 295 295 294 293 294 291 286 284 285 286 285 282 278 279 280 278 276 273 266 254 241 213 196 185 179 177 169 164 158 155 150 148 148 148 148 147 147 144
303 303 304 303 302 301 301 300 296 295 295 294 290 287 287 288 287 282 271 270 282 286 281 270 258 239 222 214 193 179 174 168 161 158 156 152 151 151 151 150 149 146 145 145
301 302 303 303 303 302 303 302 300 298 297 297 296 294 290 288 286 281 283 281 285 288 281 262 235 224 224 212 184 172 167 164 160 157 154 150 149 150 148 147 146 145 146 145
302 304 304 305 304 303 305 308 308 302 298 296 294 293 293 293 290 282 280 285 286 286 276 250 227 222 224 190 168 160 159 157 154 150 146 143 143 143 144 144 143 143 144 143
302 303 304 307 308 306 307 310 311 310 309 307 308 306 300 292 290 295 296 296 295 289 273 240 214 205 186 160 156 154 154 154 151 146 143 142 143 142 142 143 143 142 142 142
304 303 302 301 301 302 305 308 310 313 315 314 315 317 314 308 302 301 301 307 311 314 312 271 132 141 142 143 145 144 142 141 140 139 139 138 140 141 140 140 139 140 140 139
305 304 303 305 308 310 311 310 310 314 316 315 315 319 320 321 323 331 332 331 344 15 41 60 80 101 113 119 124 128 130 131 132 133 134 135 136 136 137 137 136 135 136 137